[[{"header":{"parameterUnit":"m.s-1","parameterCategory":1,"la1":30.2991,"la2":30.254,"lo1":-89.0895,"lo2":-89.0444,"dy":0.0017,"dx":0.0017,"nx":28,"ny":28,"refTime":"2024-12-17T03:00:00:Z","depth":0,"parameterNumber":2,"parameterNumberName":"U-component_of_WINDS"},"data":[0,0,0,0,0,0,0,0,0,0,0,0,0,0,0,0,0,0,0,0,0,0,0,0,0,0,0,0,0,0,0,0,0,0,0,0,0,0,0,0,0,0,0,0,0,0,0,0,0,0,0,0,0,0,0,0,0,0,-2.4507,-2.4507,0,-2.4533,-2.4533,-2.4534,-2.4475,-2.4473,-2.4471,-2.447,-2.4497,-2.45,-2.4502,0,0,0,0,0,0,0,0,0,0,0,0,0,-2.4408,-2.441,-2.4507,-2.4507,-2.4508,-2.4533,-2.4533,-2.4534,-2.4476,-2.4473,-2.4471,-2.4469,-2.4496,-2.4499,-2.4502,0,0,0,0,0,0,0,0,0,0,0,0,0,-2.4444,-2.4411,-2.4507,-2.4482,-2.448,-2.4533,-2.4533,-2.4534,-2.4476,-2.4473,-2.447,-2.4468,-2.4495,-2.4499,-2.4503,-2.4582,0,0,-2.4514,-2.4516,0,0,0,0,0,0,0,0,-2.4442,-2.4448,-2.4485,-2.4484,-2.4481,-2.4498,-2.4508,-2.455,-2.4477,-2.4477,-2.447,-2.4466,-2.45,-2.4503,-2.4514,-2.4583,-2.4584,-2.4514,-2.4517,-2.4518,-2.4519,0,0,0,0,0,0,0,-2.444,-2.4446,-2.4517,-2.4486,-2.4483,-2.4469,-2.4471,-2.4516,-2.4504,-2.4477,-2.4473,-2.4477,-2.4498,-2.4511,-2.4514,-2.4585,-2.4514,-2.4517,-2.452,-2.4521,-2.4721,-2.4724,0,0,0,0,0,0,-2.444,-2.4445,-2.4517,-2.4518,-2.4454,-2.4473,-2.4476,-2.4496,-2.4503,-2.4502,-2.4479,-2.4474,-2.4506,-2.451,-2.4515,-2.4608,-2.4518,-2.4522,-2.4524,-2.4718,-2.4722,-2.4725,0,0,0,0,0,0,-2.4438,-2.4447,-2.4515,-2.448,-2.4488,-2.4478,-2.4501,-2.4498,-2.451,-2.4505,-2.4503,-2.4494,-2.4504,-2.451,-2.4566,-2.4608,-2.4523,-2.4527,-2.4714,-2.4719,-2.4723,-2.4796,0,0,0,0,0,0,-2.4436,-2.4447,-2.4477,-2.4481,-2.449,-2.4566,-2.4504,-2.45,-2.4516,-2.451,-2.4518,-2.4517,-2.4502,-2.4561,-2.457,-2.4612,-2.453,-2.471,-2.4716,-2.4722,-2.479,-2.4802,-2.4813,0,0,0,0,0,-2.4433,-2.4496,-2.4478,-2.4487,-2.4527,-2.4568,-2.4573,-2.4554,-2.452,-2.455,-2.4547,-2.4517,-2.4603,-2.4567,-2.4576,-2.4621,-2.4708,-2.4715,-2.4721,-2.4784,-2.48,-2.4813,0,0,0,0,0,0,-2.4496,-2.4496,-2.4477,-2.4544,-2.4556,-2.4558,-2.4595,-2.4571,-2.4594,-2.4587,-2.4563,-2.4566,-2.4626,-2.4629,-2.4589,-2.4698,-2.4649,-2.4659,-2.4694,-2.4709,-2.472,-2.4718,-2.4533,0,0,0,0,0,-2.4518,-2.4552,-2.455,-2.4609,-2.4617,-2.4605,-2.4622,-2.4607,-2.4619,-2.4624,-2.4625,-2.4639,-2.4669,-2.4689,-2.4716,-2.479,-2.4791,-2.4826,-2.4837,-2.4847,-2.4855,-2.4895,-2.491,-2.4748,-2.4748,-2.4748,0,0,-2.4564,-2.4568,-2.459,-2.4622,-2.463,-2.4666,-2.461,-2.465,-2.4676,-2.463,-2.4683,-2.4685,-2.4698,-2.4764,-2.4792,-2.4768,-2.49,-2.4856,-2.4864,-2.4866,-2.4903,-2.4919,-2.4932,-2.4752,-2.4752,-2.4751,0,0,-2.4665,-2.4671,-2.4721,-2.4731,-2.4744,-2.4736,-2.4748,-2.4754,-2.4753,-2.4806,-2.4773,-2.4804,-2.4856,-2.4867,-2.488,-2.4986,-2.4959,-2.4996,-2.5058,-2.5097,-2.5109,-2.512,-2.5158,-2.5172,-2.5004,-2.5004,-2.5004,0,-2.4719,-2.4771,-2.475,-2.4792,-2.4807,-2.4768,-2.4819,-2.483,-2.4851,-2.4863,-2.4835,-2.49,-2.4906,-2.4974,-2.5,-2.5011,-2.5025,-2.4994,-2.5109,-2.512,-2.513,-2.5166,-2.518,-2.5009,-2.5008,-2.5008,-2.5007,0,-2.4838,-2.4874,-2.4913,-2.4935,-2.4955,-2.5001,-2.4988,-2.501,-2.4994,-2.4989,-2.5044,-2.505,-2.5078,-2.5093,-2.5077,-2.5159,-2.5143,-2.5113,-2.5063,-2.515,-2.5184,-2.5197,-2.5015,-2.5013,-2.5012,-2.5011,0,0,-2.4978,-2.4989,-2.5003,-2.5013,-2.5025,-2.5053,-2.5098,-2.5126,-2.5145,-2.5162,-2.5199,-2.5245,-2.5217,-2.5232,-2.5217,-2.5251,-2.5335,-2.5216,-2.5216,-2.5238,-2.5425,-2.5448,-2.5464,-2.5318,-2.532,-2.5322,-2.5424,0,-2.5077,-2.5154,-2.5138,-2.5213,-2.5247,-2.5211,-2.5251,-2.5263,-2.526,-2.5288,-2.5285,-2.5318,-2.5279,-2.5287,-2.532,-2.5318,-2.5372,-2.531,-2.5352,-2.5354,-2.5349,-2.5481,-2.5504,-2.56,-2.5437,-2.5439,-2.5441,0,-2.5203,-2.5225,-2.5304,-2.5311,-2.5325,-2.536,-2.5385,-2.5412,-2.5426,-2.5421,-2.5438,-2.5417,-2.5462,-2.5413,-2.5475,-2.5433,-2.545,-2.5451,-2.5455,-2.5457,-2.5402,-2.5486,-2.563,-2.5644,-2.5461,-2.5459,-2.5458,0,-2.5297,-2.5346,-2.54,-2.5409,-2.5419,-2.5445,-2.5451,-2.5461,-2.5479,-2.5501,-2.5512,-2.5539,-2.5553,-2.5575,-2.5562,-2.5527,-2.5626,-2.5576,-2.5624,-2.5624,-2.5645,-2.5644,-2.5793,-2.5658,-2.5657,-2.5657,-2.5657,0,-2.5409,-2.5459,-2.5442,-2.5475,-2.553,-2.5511,-2.5566,-2.5567,-2.5577,-2.561,-2.5582,-2.5613,-2.5594,-2.5625,-2.5615,-2.5668,-2.5675,-2.5673,-2.5669,-2.5675,-2.5675,-2.5684,-2.5677,-2.5661,-2.566,-2.5659,-2.5659,0,-2.5522,-2.5513,-2.5569,-2.5575,-2.5577,-2.5618,-2.5622,-2.5653,-2.5649,-2.5691,-2.57,-2.5694,-2.5728,-2.5717,-2.5754,-2.5748,-2.5815,-2.5803,-2.581,-2.5807,-2.5855,-2.5851,-2.6015,-2.6035,-2.5888,-2.5889,-2.589,0,-2.5594,-2.5631,-2.5641,-2.5661,-2.5669,-2.5701,-2.572,-2.5703,-2.5723,-2.5742,-2.5771,-2.5803,-2.5827,-2.5884,-2.5882,-2.5911,-2.5899,-2.5955,-2.5903,-2.5908,-2.5899,-2.5897,-2.59,-2.5965,-2.5967,-2.5968,-2.5969,0,-2.5722,-2.5716,-2.5743,-2.5769,-2.5792,-2.5812,-2.5829,-2.5847,-2.5831,-2.5856,-2.5891,-2.591,-2.5948,-2.598,-2.6006,-2.6012,-2.5988,-2.5986,-2.5998,-2.6003,-2.6005,-2.6004,-2.5837,-2.5982,-2.598,-2.5979,-2.5979,-2.5978,-2.5816,-2.5847,-2.5859,-2.5891,-2.5902,-2.5919,-2.5949,-2.5949,-2.5977,-2.6007,-2.5996,-2.6036,-2.6049,-2.6082,-2.6091,-2.6123,-2.6101,-2.612,-2.6124,-2.6128,-2.6134,-2.6002,-2.6128,-2.6127,-2.6127,-2.6126,-2.6126,0,-2.5941,-2.5947,-2.5977,-2.6002,-2.6027,-2.6003,-2.6022,-2.6044,-2.608,-2.6094,-2.6119,-2.6159,-2.6191,-2.6193,-2.6222,-2.6247,-2.6237,-2.6255,-2.6252,-2.6254,-2.6152,-2.6138,-2.6263,-2.6263,-2.6263,-2.6263,-2.6263,-2.6263,-2.6009,-2.6062,-2.6057,-2.6116,-2.6121,-2.616,-2.6173,-2.6189,-2.62,-2.6246,-2.6272,-2.6273,-2.6283,-2.6313,-2.6341,-2.6341,-2.6353,-2.6375,-2.6371,-2.6275,-2.6261,-2.6248,-2.6235,-2.6378,-2.6378,-2.647,-2.6471,-2.6471]},{"header":{"parameterUnit":"m.s-1","parameterCategory":1,"la1":30.2991,"la2":30.254,"lo1":-89.0895,"lo2":-89.0444,"dy":0.0017,"dx":0.0017,"nx":28,"ny":28,"refTime":"2024-12-17T03:00:00:Z","depth":0,"parameterNumber":3,"parameterNumberName":"V-component_of_WINDS"},"data":[0,0,0,0,0,0,0,0,0,0,0,0,0,0,0,0,0,0,0,0,0,0,0,0,0,0,0,0,0,0,0,0,0,0,0,0,0,0,0,0,0,0,0,0,0,0,0,0,0,0,0,0,0,0,0,0,0,0,-0.726,-0.7261,0,-0.7296,-0.7296,-0.7297,-0.7281,-0.728,-0.7279,-0.7278,-0.7318,-0.732,-0.7322,0,0,0,0,0,0,0,0,0,0,0,0,0,-0.7181,-0.7182,-0.726,-0.7261,-0.7261,-0.7296,-0.7296,-0.7297,-0.7281,-0.728,-0.7279,-0.7278,-0.7317,-0.732,-0.7322,0,0,0,0,0,0,0,0,0,0,0,0,0,-0.7216,-0.7183,-0.726,-0.7257,-0.7257,-0.7296,-0.7296,-0.7297,-0.7281,-0.728,-0.7278,-0.7277,-0.7317,-0.7319,-0.7322,-0.7367,0,0,-0.7331,-0.7332,0,0,0,0,0,0,0,0,-0.7214,-0.7219,-0.7257,-0.7258,-0.7258,-0.7282,-0.7283,-0.7321,-0.7281,-0.7272,-0.7278,-0.7276,-0.7308,-0.7311,-0.7321,-0.7369,-0.737,-0.7331,-0.7333,-0.7334,-0.7335,0,0,0,0,0,0,0,-0.7211,-0.7217,-0.7275,-0.7258,-0.7258,-0.7255,-0.7258,-0.729,-0.7297,-0.7273,-0.7272,-0.7276,-0.7307,-0.7318,-0.7322,-0.7371,-0.7331,-0.7334,-0.7335,-0.7337,-0.7456,-0.7458,0,0,0,0,0,0,-0.7209,-0.7215,-0.7273,-0.7276,-0.7232,-0.7257,-0.7261,-0.7276,-0.7297,-0.7298,-0.7277,-0.7275,-0.7314,-0.7318,-0.7323,-0.7376,-0.7334,-0.7337,-0.7338,-0.7455,-0.7457,-0.7458,0,0,0,0,0,0,-0.7207,-0.7214,-0.7272,-0.7245,-0.7252,-0.726,-0.7277,-0.7277,-0.7288,-0.73,-0.7301,-0.7287,-0.7313,-0.7319,-0.7356,-0.7377,-0.7338,-0.7341,-0.7453,-0.7455,-0.7457,-0.7483,0,0,0,0,0,0,-0.7205,-0.7213,-0.723,-0.7245,-0.7254,-0.7304,-0.7278,-0.7279,-0.7293,-0.729,-0.7309,-0.7311,-0.7312,-0.7351,-0.7358,-0.738,-0.7343,-0.7451,-0.7454,-0.7457,-0.748,-0.7486,-0.749,0,0,0,0,0,-0.7202,-0.7237,-0.7231,-0.7238,-0.7275,-0.7305,-0.731,-0.7309,-0.7294,-0.7311,-0.7319,-0.731,-0.7373,-0.7355,-0.7363,-0.7386,-0.745,-0.7453,-0.7456,-0.7478,-0.7485,-0.749,0,0,0,0,0,0,-0.7226,-0.7239,-0.7233,-0.7273,-0.7288,-0.7302,-0.7324,-0.7317,-0.7337,-0.7334,-0.7334,-0.7338,-0.7376,-0.7385,-0.7364,-0.743,-0.7409,-0.7414,-0.7423,-0.743,-0.7435,-0.7432,-0.7345,0,0,0,0,0,-0.7235,-0.7258,-0.7269,-0.7304,-0.7311,-0.7316,-0.7329,-0.7327,-0.7343,-0.735,-0.736,-0.7376,-0.7399,-0.7415,-0.7437,-0.7481,-0.7485,-0.7501,-0.7506,-0.751,-0.7515,-0.7538,-0.7545,-0.7469,-0.7469,-0.7469,0,0,-0.7256,-0.7266,-0.7281,-0.7309,-0.732,-0.7344,-0.7321,-0.7348,-0.7366,-0.7354,-0.7389,-0.7397,-0.7415,-0.7455,-0.7473,-0.7463,-0.7536,-0.7514,-0.7517,-0.752,-0.7542,-0.7549,-0.7556,-0.7471,-0.7471,-0.747,0,0,-0.7307,-0.7316,-0.7346,-0.7357,-0.7373,-0.7376,-0.7383,-0.7398,-0.7402,-0.7436,-0.7427,-0.7449,-0.7489,-0.7502,-0.7514,-0.7567,-0.756,-0.7574,-0.7602,-0.7624,-0.763,-0.7636,-0.7655,-0.7662,-0.7579,-0.7579,-0.7579,0,-0.7331,-0.7366,-0.7363,-0.7389,-0.7402,-0.739,-0.742,-0.7431,-0.7455,-0.7464,-0.7452,-0.7501,-0.7513,-0.7555,-0.7568,-0.7578,-0.7586,-0.7573,-0.7629,-0.7635,-0.764,-0.7658,-0.7665,-0.758,-0.758,-0.758,-0.758,0,-0.7395,-0.7419,-0.7441,-0.7462,-0.7477,-0.7506,-0.7507,-0.7523,-0.7519,-0.7523,-0.7558,-0.7571,-0.7595,-0.7605,-0.7603,-0.7647,-0.764,-0.7629,-0.7609,-0.7649,-0.7666,-0.7673,-0.7583,-0.7582,-0.7582,-0.7581,0,0,-0.7463,-0.748,-0.7488,-0.7497,-0.7513,-0.7532,-0.756,-0.7582,-0.7595,-0.7611,-0.7635,-0.7668,-0.7657,-0.767,-0.7669,-0.7689,-0.773,-0.7675,-0.7676,-0.7685,-0.778,-0.7789,-0.7797,-0.7725,-0.7726,-0.7727,-0.7778,0,-0.7515,-0.7562,-0.7559,-0.7604,-0.7626,-0.7614,-0.7638,-0.7651,-0.7655,-0.7675,-0.768,-0.7704,-0.7687,-0.7695,-0.7714,-0.7721,-0.7749,-0.7717,-0.7748,-0.7749,-0.7744,-0.7806,-0.7816,-0.7864,-0.7785,-0.7786,-0.7787,0,-0.7582,-0.7598,-0.7645,-0.7656,-0.7665,-0.7687,-0.7706,-0.7725,-0.7739,-0.7741,-0.7755,-0.775,-0.7778,-0.7756,-0.7795,-0.7773,-0.7785,-0.779,-0.7792,-0.7796,-0.7771,-0.7812,-0.7879,-0.7886,-0.7797,-0.7797,-0.7796,0,-0.7627,-0.7661,-0.7693,-0.7701,-0.7715,-0.773,-0.7737,-0.7749,-0.7762,-0.7779,-0.7788,-0.7809,-0.782,-0.7836,-0.7837,-0.7821,-0.7877,-0.7855,-0.788,-0.788,-0.7893,-0.7893,-0.7964,-0.79,-0.79,-0.7899,-0.7899,0,-0.7686,-0.7715,-0.7713,-0.7733,-0.7765,-0.7761,-0.7793,-0.7799,-0.781,-0.7831,-0.7822,-0.7842,-0.7841,-0.7861,-0.7862,-0.7895,-0.79,-0.7902,-0.7903,-0.7904,-0.7904,-0.7913,-0.791,-0.7901,-0.7901,-0.7901,-0.79,0,-0.7743,-0.7743,-0.7777,-0.7786,-0.7789,-0.7813,-0.7821,-0.784,-0.7842,-0.7869,-0.7875,-0.7879,-0.7903,-0.7905,-0.7932,-0.7933,-0.7972,-0.7968,-0.7967,-0.7967,-0.7992,-0.799,-0.8072,-0.8083,-0.8011,-0.8012,-0.8012,0,-0.7781,-0.7802,-0.7814,-0.7826,-0.7833,-0.7854,-0.7867,-0.7863,-0.7877,-0.7893,-0.7911,-0.7933,-0.7951,-0.7989,-0.7995,-0.8016,-0.8013,-0.804,-0.8016,-0.8016,-0.8014,-0.8013,-0.8015,-0.8045,-0.8046,-0.8047,-0.8047,0,-0.7848,-0.7846,-0.7864,-0.7882,-0.7896,-0.7911,-0.7924,-0.7935,-0.7933,-0.7949,-0.7972,-0.7985,-0.8012,-0.8035,-0.8055,-0.8062,-0.8055,-0.8054,-0.8061,-0.8064,-0.8062,-0.8064,-0.7981,-0.8053,-0.8053,-0.8052,-0.8052,-0.8052,-0.7897,-0.7915,-0.7926,-0.7946,-0.7954,-0.7966,-0.7984,-0.7988,-0.8007,-0.8028,-0.8024,-0.805,-0.8063,-0.8088,-0.8097,-0.8118,-0.8109,-0.8119,-0.8122,-0.8124,-0.8127,-0.8058,-0.8121,-0.8121,-0.8121,-0.8121,-0.8121,0,-0.7964,-0.7969,-0.7988,-0.8005,-0.8021,-0.801,-0.8023,-0.8038,-0.806,-0.8071,-0.8088,-0.8114,-0.8136,-0.8142,-0.8163,-0.8178,-0.8175,-0.8184,-0.8183,-0.8185,-0.8134,-0.8126,-0.8186,-0.8186,-0.8186,-0.8186,-0.8186,-0.8186,-0.8001,-0.8031,-0.8031,-0.8065,-0.8071,-0.8095,-0.8103,-0.8114,-0.8123,-0.8152,-0.8169,-0.8173,-0.8183,-0.8203,-0.8222,-0.8224,-0.8232,-0.8242,-0.8243,-0.8195,-0.8189,-0.8183,-0.8175,-0.8244,-0.8244,-0.8292,-0.8293,-0.8293]}]]